Location: Unspecified
(52.4292°N, 19.3359°E)
Time: 00:37:34
(UTC+02:00)

A-11 Canister half - Pass Details

Date: 21 May 2024
Orbit: 1515 x 1685 km, 47.2° (Epoch: 19 June)

Event Time Altitude Azimuth Distance (km) Brightness Sun altitude
Rises 05:34:35 0° 256° (WSW) 4,722 10.9 6.6°
Reaches altitude 10° 05:37:41 10° 253° (WSW) 3,721 10.4 7.1°
Maximum altitude 05:46:52 64° 175° (S) 1,657 9.3 8.3°
Drops below altitude 10° 05:55:56 10° 97° (E) 3,677 12.3 9.6°
Sets 05:58:59 0° 94° (E) 4,663 12.9 10.1°
